| time (UTC) | temp F | wind direction | speed MPH | gust MPH | rain 1hr in | rain 24hr in | rain mn in | humidity % | barometer mb |
| 20260905103724 | 81 | 208 | 1.0 | 3.0 | 0.00 | 0.00 | 0.00 | 55 | 1012.0 |
| 20260905102724 | 81 | 201 | 2.0 | 3.0 | 0.00 | 0.00 | 0.00 | 55 | 1012.0 |
| 20260905101723 | 81 | 192 | 2.0 | 3.0 | 0.00 | 0.00 | 0.00 | 55 | 1012.0 |
| 20260905100724 | 81 | 190 | 2.0 | 3.0 | 0.00 | 0.00 | 0.00 | 55 | 1011.8 |
| 20260905095724 | 82 | 192 | 2.0 | 4.0 | 0.00 | 0.00 | 0.00 | 54 | 1011.7 |
| 20260905094723 | 83 | 193 | 2.0 | 3.0 | 0.00 | 0.00 | 0.00 | 51 | 1011.9 |
| 20260905092723 | 83 | 190 | 2.0 | 2.0 | 0.00 | 0.00 | 0.00 | 51 | 1011.9 |
| 20260905091723 | 83 | 193 | 1.0 | 2.0 | 0.00 | 0.00 | 0.00 | 51 | 1012.1 |
| 20260905090725 | 83 | 210 | 0.0 | 2.0 | 0.00 | 0.00 | 0.00 | 51 | 1011.9 |
| 20260905085723 | 83 | 201 | 1.0 | 2.0 | 0.00 | 0.00 | 0.00 | 50 | 1012.0 |
| 20260905084726 | 84 | 203 | 1.0 | 2.0 | 0.00 | 0.00 | 0.00 | 50 | 1012.1 |
| 20260905083726 | 84 | 193 | 2.0 | 3.0 | 0.00 | 0.00 | 0.00 | 50 | 1012.3 |
| 20260905082722 | 84 | 191 | 0.0 | 2.0 | 0.00 | 0.00 | 0.00 | 49 | 1012.2 |
| 20260905081723 | 84 | 219 | 1.0 | 2.0 | 0.00 | 0.00 | 0.00 | 49 | 1012.1 |
| 20260905080724 | 84 | 203 | 1.0 | 2.0 | 0.00 | 0.00 | 0.00 | 50 | 1012.1 |
| 20260905075723 | 84 | 201 | 2.0 | 2.0 | 0.00 | 0.00 | 0.00 | 51 | 1012.1 |
| 20260905074723 | 84 | 198 | 1.0 | 2.0 | 0.00 | 0.00 | 0.00 | 52 | 1012.2 |
| 20260905073723 | 85 | 209 | 1.0 | 2.0 | 0.00 | 0.00 | 0.00 | 51 | 1012.0 |
| 20260905072722 | 85 | 207 | 1.0 | 2.0 | 0.00 | 0.00 | 0.00 | 51 | 1011.9 |
| 20260905071723 | 85 | 201 | 2.0 | 3.0 | 0.00 | 0.00 | 0.00 | 50 | 1012.1 |
| 20260905070723 | 85 | 214 | 2.0 | 2.0 | 0.00 | 0.00 | 0.00 | 49 | 1012.0 |
| 20260905065726 | 86 | 205 | 1.0 | 3.0 | 0.00 | 0.00 | 0.00 | 47 | 1012.0 |
| 20260905064723 | 87 | 206 | 2.0 | 2.0 | 0.00 | 0.00 | 0.00 | 46 | 1011.9 |
| 20260905063723 | 88 | 189 | 1.0 | 4.0 | 0.00 | 0.00 | 0.00 | 42 | 1011.8 |
| 20260905062723 | 88 | 215 | 1.0 | 3.0 | 0.00 | 0.00 | 0.00 | 40 | 1011.7 |
| 20260905055724 | 90 | 268 | 2.0 | 4.0 | 0.00 | 0.00 | 0.00 | 36 | 1011.3 |
| 20260905053723 | 91 | 326 | 1.0 | 4.0 | 0.00 | 0.00 | 0.00 | 36 | 1011.5 |
| 20260905052725 | 91 | 263 | 2.0 | 4.0 | 0.00 | 0.00 | 0.00 | 36 | 1011.2 |
| 20260905051723 | 91 | 248 | 2.0 | 4.0 | 0.00 | 0.00 | 0.00 | 36 | 1011.3 |
| 20260905045725 | 93 | 262 | 3.0 | 7.0 | 0.00 | 0.00 | 0.00 | 34 | 1011.2 |
| 20260905044723 | 93 | 271 | 3.0 | 6.0 | 0.00 | 0.00 | 0.00 | 34 | 1011.1 |
| 20260905043723 | 93 | 248 | 4.0 | 8.0 | 0.00 | 0.00 | 0.00 | 34 | 1011.1 |
| 20260905041724 | 94 | 275 | 4.0 | 7.0 | 0.00 | 0.00 | 0.00 | 35 | 1011.0 |
| 20260905035723 | 94 | 215 | 2.0 | 4.0 | 0.00 | 0.00 | 0.00 | 37 | 1010.8 |
| 20260905034723 | 94 | 216 | 2.0 | 4.0 | 0.00 | 0.00 | 0.00 | 35 | 1010.8 |
| 20260905033723 | 94 | 195 | 0.0 | 3.0 | 0.00 | 0.00 | 0.00 | 35 | 1010.9 |
| 20260905032723 | 94 | 202 | 1.0 | 3.0 | 0.00 | 0.00 | 0.00 | 35 | 1010.5 |
| 20260905031726 | 94 | 205 | 2.0 | 3.0 | 0.00 | 0.00 | 0.00 | 35 | 1010.3 |
| 20260905030724 | 94 | 167 | 1.0 | 2.0 | 0.00 | 0.00 | 0.00 | 36 | 1010.4 |
| 20260905025723 | 94 | 192 | 0.0 | 2.0 | 0.00 | 0.00 | 0.00 | 36 | 1010.1 |
| 20260905024723 | 94 | 176 | 1.0 | 2.0 | 0.00 | 0.00 | 0.00 | 36 | 1009.9 |
| 20260905023723 | 95 | 170 | 0.0 | 2.0 | 0.00 | 0.00 | 0.00 | 34 | 1009.9 |
| 20260905022723 | 96 | 202 | 0.0 | 2.0 | 0.00 | 0.00 | 0.00 | 33 | 1009.7 |
| 20260905021728 | 96 | 210 | 0.0 | 2.0 | 0.00 | 0.00 | 0.00 | 32 | 1009.4 |
| 20260905014711 | 97 | 262 | 1.0 | 3.0 | 0.00 | 0.00 | 0.00 | 31 | 1009.6 |
| 20260905013711 | 97 | 224 | 0.0 | 4.0 | 0.00 | 0.00 | 0.00 | 31 | 1009.6 |
| 20260905012711 | 98 | 247 | 2.0 | 5.0 | 0.00 | 0.00 | 0.00 | 31 | 1009.3 |
| 20260905011712 | 98 | 219 | 0.0 | 5.0 | 0.00 | 0.00 | 0.00 | 30 | 1009.3 |
| 20260905010711 | 98 | 282 | 2.0 | 4.0 | 0.00 | 0.00 | 0.00 | 31 | 1009.4 |
| 20260905005712 | 100 | 245 | 0.0 | 4.0 | 0.00 | 0.00 | 0.00 | 29 | 1009.3 |
| 20260905004711 | 100 | 191 | 1.0 | 4.0 | 0.00 | 0.00 | 0.00 | 29 | 1009.5 |
| 20260905003711 | 100 | 264 | 2.0 | 4.0 | 0.00 | 0.00 | 0.00 | 30 | 1009.6 |
| 20260905002711 | 102 | 196 | 2.0 | 7.0 | 0.00 | 0.00 | 0.00 | 29 | 1009.4 |
| 20260905000711 | 100 | 204 | 1.0 | 6.0 | 0.00 | 0.00 | 0.00 | 29 | 1009.5 |
| 20260904235711 | 104 | 310 | 0.0 | 4.0 | 0.00 | 0.00 | 0.00 | 28 | 1009.5 |
| 20260904233711 | 103 | 202 | 5.0 | 7.0 | 0.00 | 0.00 | 0.00 | 29 | 1009.8 |
| 20260904232711 | 103 | 140 | 2.0 | 9.0 | 0.00 | 0.00 | 0.00 | 29 | 1009.4 |
| 20260904231711 | 101 | 193 | 0.0 | 8.0 | 0.00 | 0.00 | 0.00 | 30 | 1009.8 |
| 20260904225711 | 103 | 215 | 0.0 | 7.0 | 0.00 | 0.00 | 0.00 | 29 | 1009.9 |
| 20260904224711 | 102 | 218 | 0.0 | 8.0 | 0.00 | 0.00 | 0.00 | 30 | 1010.1 |
| 20260904223711 | 103 | 273 | 3.0 | 7.0 | 0.00 | 0.00 | 0.00 | 29 | 1009.8 |
| 20260904222711 | 102 | 161 | 2.0 | 6.0 | 0.00 | 0.00 | 0.00 | 31 | 1010.1 |
| 20260904221711 | 103 | 227 | 6.0 | 9.0 | 0.00 | 0.00 | 0.00 | 30 | 1010.2 |
| 20260904220711 | 102 | 352 | 3.0 | 9.0 | 0.00 | 0.00 | 0.00 | 31 | 1010.2 |
| 20260904215711 | 102 | 344 | 3.0 | 6.0 | 0.00 | 0.00 | 0.00 | 30 | 1010.4 |
| 20260904214711 | 102 | 150 | 4.0 | 7.0 | 0.00 | 0.00 | 0.00 | 30 | 1010.6 |
| 20260904213712 | 102 | 246 | 3.0 | 8.0 | 0.00 | 0.00 | 0.00 | 31 | 1010.9 |
| 20260904212711 | 103 | 13 | 0.0 | 5.0 | 0.00 | 0.00 | 0.00 | 31 | 1010.9 |
| 20260904211712 | 102 | 296 | 3.0 | 6.0 | 0.00 | 0.00 | 0.00 | 32 | 1011.1 |
| 20260904204711 | 100 | 198 | 3.0 | 7.0 | 0.00 | 0.00 | 0.00 | 33 | 1011.5 |
| 20260904202711 | 101 | 200 | 3.0 | 6.0 | 0.00 | 0.00 | 0.00 | 35 | 1011.7 |
| 20260904201712 | 100 | 147 | 2.0 | 6.0 | 0.00 | 0.00 | 0.00 | 37 | 1011.8 |
| 20260904200713 | 98 | 149 | 4.0 | 10.0 | 0.00 | 0.00 | 0.00 | 38 | 1011.8 |
| 20260904195711 | 97 | 60 | 0.0 | 5.0 | 0.00 | 0.00 | 0.00 | 41 | 1011.7 |
| 20260904193711 | 99 | 340 | 0.0 | 7.0 | 0.00 | 0.00 | 0.00 | 39 | 1012.3 |
| 20260904191710 | 98 | 206 | 2.0 | 6.0 | 0.00 | 0.00 | 0.00 | 40 | 1012.4 |
| 20260904190711 | 96 | 164 | 2.0 | 7.0 | 0.00 | 0.00 | 0.00 | 42 | 1012.6 |
| 20260904185715 | 97 | 150 | 5.0 | 7.0 | 0.00 | 0.00 | 0.00 | 42 | 1012.8 |
| 20260904184710 | 96 | 172 | 2.0 | 6.0 | 0.00 | 0.00 | 0.00 | 42 | 1012.7 |
| 20260904183718 | 97 | 147 | 3.0 | 9.0 | 0.00 | 0.00 | 0.00 | 43 | 1013.3 |
| 20260904182711 | 95 | 137 | 3.0 | 6.0 | 0.00 | 0.00 | 0.00 | 45 | 1013.3 |
| 20260904181711 | 95 | 167 | 4.0 | 6.0 | 0.00 | 0.00 | 0.00 | 45 | 1013.5 |
| 20260904180712 | 97 | 226 | 2.0 | 7.0 | 0.00 | 0.00 | 0.00 | 44 | 1013.8 |
| 20260904175711 | 95 | 135 | 2.0 | 8.0 | 0.00 | 0.00 | 0.00 | 46 | 1013.6 |
| 20260904174711 | 94 | 153 | 1.0 | 7.0 | 0.00 | 0.00 | 0.00 | 47 | 1014.0 |
| 20260904173721 | 94 | 159 | 3.0 | 7.0 | 0.00 | 0.00 | 0.00 | 48 | 1013.9 |
| 20260904172711 | 94 | 165 | 2.0 | 5.0 | 0.00 | 0.00 | 0.00 | 48 | 1013.9 |
| 20260904171711 | 93 | 165 | 0.0 | 9.0 | 0.00 | 0.00 | 0.00 | 49 | 1014.1 |
| 20260904165711 | 92 | 213 | 1.0 | 8.0 | 0.00 | 0.00 | 0.00 | 52 | 1013.8 |
| 20260904164711 | 91 | 189 | 2.0 | 8.0 | 0.00 | 0.00 | 0.00 | 52 | 1013.8 |
| 20260904163711 | 92 | 139 | 1.0 | 7.0 | 0.00 | 0.00 | 0.00 | 51 | 1013.9 |
| 20260904162711 | 90 | 171 | 5.0 | 7.0 | 0.00 | 0.00 | 0.00 | 52 | 1013.6 |
| 20260904161711 | 92 | 151 | 1.0 | 8.0 | 0.00 | 0.00 | 0.00 | 51 | 1013.8 |
| 20260904160711 | 90 | 174 | 4.0 | 7.0 | 0.00 | 0.00 | 0.00 | 54 | 1013.5 |
| 20260904155712 | 90 | 180 | 4.0 | 7.0 | 0.00 | 0.00 | 0.00 | 55 | 1013.8 |
| 20260904153712 | 89 | 155 | 2.0 | 7.0 | 0.00 | 0.00 | 0.00 | 56 | 1013.4 |
| 20260904152711 | 88 | 172 | 4.0 | 9.0 | 0.00 | 0.00 | 0.00 | 58 | 1013.4 |
| 20260904151712 | 88 | 158 | 2.0 | 8.0 | 0.00 | 0.00 | 0.00 | 59 | 1013.4 |
| 20260904145711 | 87 | 178 | 3.0 | 6.0 | 0.00 | 0.00 | 0.00 | 61 | 1013.3 |
| 20260904144711 | 85 | 179 | 4.0 | 6.0 | 0.00 | 0.00 | 0.00 | 62 | 1013.3 |
| 20260904143711 | 84 | 213 | 2.0 | 5.0 | 0.00 | 0.00 | 0.00 | 65 | 1013.3 |
| 20260904142711 | 84 | 192 | 2.0 | 4.0 | 0.00 | 0.00 | 0.00 | 65 | 1013.1 |
| 20260904141711 | 84 | 233 | 0.0 | 3.0 | 0.00 | 0.00 | 0.00 | 66 | 1013.1 |
| 20260904140712 | 83 | 198 | 0.0 | 3.0 | 0.00 | 0.00 | 0.00 | 66 | 1012.9 |
| 20260904135712 | 83 | 251 | 0.0 | 3.0 | 0.00 | 0.00 | 0.00 | 67 | 1012.9 |
| 20260904134711 | 82 | 209 | 0.0 | 2.0 | 0.00 | 0.00 | 0.00 | 68 | 1012.8 |
| 20260904133711 | 82 | 174 | 1.0 | 2.0 | 0.00 | 0.00 | 0.00 | 70 | 1012.6 |
| 20260904132711 | 81 | 232 | 0.0 | 2.0 | 0.00 | 0.00 | 0.00 | 71 | 1012.7 |
| 20260904130712 | 81 | 226 | 1.0 | 2.0 | 0.00 | 0.00 | 0.00 | 71 | 1012.2 |
| 20260904125711 | 81 | 205 | 2.0 | 3.0 | 0.00 | 0.00 | 0.00 | 70 | 1012.2 |
| 20260904124711 | 81 | 218 | 2.0 | 2.0 | 0.00 | 0.00 | 0.00 | 70 | 1012.0 |
| 20260904121712 | 82 | 212 | 1.0 | 3.0 | 0.00 | 0.00 | 0.00 | 68 | 1011.7 |
| 20260904120713 | 82 | 165 | 1.0 | 2.0 | 0.00 | 0.00 | 0.00 | 68 | 1011.6 |
| 20260904115711 | 82 | 196 | 0.0 | 2.0 | 0.00 | 0.00 | 0.00 | 68 | 1011.7 |
| 20260904113711 | 83 | 194 | 1.0 | 3.0 | 0.00 | 0.00 | 0.00 | 67 | 1011.6 |
| 20260904111711 | 83 | 190 | 3.0 | 4.0 | 0.00 | 0.00 | 0.00 | 66 | 1011.3 |
| 20260904105717 | 83 | 153 | 2.0 | 3.0 | 0.00 | 0.00 | 0.00 | 67 | 1011.7 |
| 20260904104711 | 83 | 209 | 2.0 | 3.0 | 0.00 | 0.00 | 0.00 | 67 | 1011.5 |